Powrót do katalogu

COSMOS 1823 DEB

AktywnyLEO
NORAD 43322·DEBRIS·🇷🇺 Russia

Wystrzelony Feb 20, 1987 z Plesetsk Cosmodrome

Loading…

Następne Przeloty (najbliższe 24 godziny)

TLE

ŚwieżeSource: Space-Track

Epoka: Sep 14, 2026, 01:14 UTC

1 43322U 87020FK  26257.05179388  .00000158  00000-0  12678-2 0  9994
2 43322  73.5909 277.2358 0022249 121.1604 239.1626 12.42715492457841

Śledź COSMOS 1823 DEB w czasie rzeczywistym z AllMySat

Download on the App Store